Hourly Data Report for June 18, 2003

All times are specified in Local Standard Time (LST). Add 1 hour to adjust for Daylight Saving Time where and when it is observed.

TORONTO CITY
ONTARIO

43°40'00.000" N
79°24'00.000" W
112.50 m
6158355
71508
XTO

Download Data

Hourly Data (June 2003)
Hourly Data Report for June 18, 2003
TIME Temp Definition
°C
Dew Point Definition
°C
Rel Hum Definition
%
Wind Dir Definition
10's deg

Wind Spd Definition
km/h
Visibility Definition
km
Stn Press Definition
kPa
Hmdx Definition


Wind Chill Definition


Weather Definition


00:00 17.6 14.7 83 LegendMM LegendMM LegendMM 100.06     LegendNANA
01:00 17.5 14.8 84 LegendMM LegendMM LegendMM 100.09     LegendNANA
02:00 17.6 14.9 84 LegendMM LegendMM LegendMM 100.07     LegendNANA
03:00 16.6 14.6 88 LegendMM LegendMM LegendMM 100.01     LegendNANA
04:00 16.5 14.7 89 LegendMM LegendMM LegendMM 99.96     LegendNANA
05:00 16.6 14.8 89 LegendMM LegendMM LegendMM 99.98     LegendNANA
06:00 17.2 15.2 88 LegendMM LegendMM LegendMM 99.98     LegendNANA
07:00 17.2 15.0 87 LegendMM LegendMM LegendMM 99.96     LegendNANA
08:00 18.3 15.7 85 LegendMM LegendMM LegendMM 99.96     LegendNANA
09:00 19.8 14.8 73 LegendMM LegendMM LegendMM 99.92     LegendNANA
10:00 20.7 15.9 74 LegendMM LegendMM LegendMM 99.91 25   LegendNANA
11:00 21.4 15.3 68 LegendMM LegendMM LegendMM 99.88 26   LegendNANA
12:00 22.4 15.0 63 LegendMM LegendMM LegendMM 99.82 26   LegendNANA
13:00 21.7 15.8 69 LegendMM LegendMM LegendMM 99.81 26   LegendNANA
14:00 22.8 16.1 66 LegendMM LegendMM LegendMM 99.77 27   LegendNANA
15:00 23.0 17.0 69 LegendMM LegendMM LegendMM 99.71 28   LegendNANA
16:00 22.6 15.5 64 LegendMM LegendMM LegendMM 99.67 27   LegendNANA
17:00 21.9 16.2 70 LegendMM LegendMM LegendMM 99.60 27   LegendNANA
18:00 21.7 16.4 72 LegendMM LegendMM LegendMM 99.54 27   LegendNANA
19:00 20.9 17.1 79 LegendMM LegendMM LegendMM 99.51 26   LegendNANA
20:00 19.6 16.5 82 LegendMM LegendMM LegendMM 99.54     LegendNANA
21:00 18.8 16.1 84 LegendMM LegendMM LegendMM 99.53     LegendNANA
22:00 18.8 15.9 83 LegendMM LegendMM LegendMM 99.55     LegendNANA
23:00 18.1 15.6 85 LegendMM LegendMM LegendMM 99.52     LegendNANA

Notes on Data Quality.

Legend

  • E = Estimated
  • M = Missing
  • NA = Not Available
Date modified: